Tracking 18980 objects as of 23-Feb-2018
HD Live streaming from Space Station
objects crossing your sky now

FENGYUN 1C DEB

Track FENGYUN 1C DEB now!
10-day predictions


NORAD ID: 36726
Int'l Code: 1999-025EAY
Perigee: 507.2 km
Apogee: 600.6 km
Inclination: 99.0 °
Period: 95.6 minutes
Semi major axis: 6924 km
RCS: 0.0079 m2 (small)
Launch date: May 10, 1999
Source: People's Republic of China (PRC)
Launch site: Taiyaun Space Center, China (TSC)

Note: This is SATELLITE DEBRIS
aabbcc
Your satellite tracking list
Your tracking list is empty




NASA's NSSDC Master Catalog

Two Line Element Set (TLE):
1 36726U 99025EAY 18050.31178343  .00007963  00000-0  51670-3 0  9990
2 36726  98.9826  95.0354 0067441 111.3997 249.4439 15.06533683491961
Source of the keplerian elements: AFSPC